This is the latest recevied weather packets stored in our database for station/object HB9FHL-13. If no packets are shown the sender has not sent any weather packets the latest 10 day(s).
| Time | Temp. | Humidity | Pressure | Rain* | Wind** | Luminosity | Snow |
|---|---|---|---|---|---|---|---|
| 1788140183 | 17.78° C | - | 1032.7 hPa | 3.3 mm | - | - | - |
| 1788140160 | 17.78° C | - | 1032.7 hPa | 3.3 mm | - | - | - |
| 1788139843 | 18.33° C | - | 1022 hPa | 3.3 mm | - | - | - |
| 1788139543 | 17.78° C | - | 1018.6 hPa | 3.3 mm | - | - | - |
| 1788139242 | 18.89° C | - | 1021.1 hPa | 3.3 mm | - | - | - |
| 1788138942 | 19.44° C | - | 1018.1 hPa | 3.3 mm | - | - | - |
| 1788138641 | 17.78° C | - | 1023.2 hPa | 3.3 mm | - | - | - |
| 1788138341 | 17.78° C | - | 1013.9 hPa | 3.05 mm | - | - | - |
| 1788138042 | 17.22° C | - | 1021 hPa | 3.05 mm | - | - | - |
| 1788137740 | 17.22° C | - | 1017.1 hPa | 3.05 mm | - | - | - |
| 1788137439 | 17.78° C | - | 1013.4 hPa | 3.05 mm | - | - | - |
| 1788137139 | 17.78° C | - | 1020.5 hPa | 2.79 mm | - | - | - |
| 1788136839 | 17.78° C | - | 1019.7 hPa | 2.79 mm | - | - | - |
| 1788136536 | 17.78° C | - | 1015.9 hPa | 2.29 mm | - | - | - |
| 1788136235 | 17.22° C | - | 1019.3 hPa | 2.03 mm | - | - | - |
| 1788135634 | 17.78° C | - | 1015.9 hPa | 1.02 mm | - | - | - |
| 1788135333 | 18.33° C | - | 1016.5 hPa | 0.51 mm | - | - | - |
| 1788135086 | 22.22° C | - | 1018.3 hPa | 0 mm | - | - | - |
| 1788135033 | 22.22° C | - | 1018.3 hPa | 0 mm | - | - | - |
| 1788134794 | 23.33° C | - | 1020.6 hPa | 0 mm | - | - | - |
| 1788134732 | 23.33° C | - | 1020.6 hPa | 0 mm | - | - | - |
| 1788134432 | 22.78° C | - | 1014.8 hPa | 0 mm | - | - | - |
| 1788133832 | 23.33° C | - | 1010.6 hPa | 0 mm | - | - | - |
| 1788133528 | 22.78° C | - | 1018.7 hPa | 0 mm | - | - | - |
| 1788133223 | 22.22° C | - | 1018.8 hPa | 0 mm | - | - | - |
* Rain since midnight (hover to see other rain measurements)
** Current wind speed in m/s (hover to see current wind gust speed)